Time,TemperatureF,DewpointF,PressureIn,WindDirection,WindDirectionDegrees,WindSpeedMPH,WindSpeedGustMPH,Humidity,HourlyPrecipIn,Conditions,Clouds,dailyrainin,SoftwareType,DateUTC
2013-12-08 00:01:00,21.3,16.4,30.51,East,93,7.0,7.0,81,0.00,,,0.00,Wunderground v.1.15,2013-12-08 05:01:00,
2013-12-08 00:03:00,21.3,16.7,30.50,East,82,7.0,7.0,82,0.00,,,0.00,Wunderground v.1.15,2013-12-08 05:03:00,
2013-12-08 00:05:00,21.3,16.7,30.51,East,82,6.0,7.0,82,0.00,,,0.00,Wunderground v.1.15,2013-12-08 05:05:00,
2013-12-08 00:11:00,21.3,16.7,30.52,East,80,4.0,5.0,82,0.00,,,0.00,Wunderground v.1.15,2013-12-08 05:11:00,
2013-12-08 00:13:00,21.3,16.7,30.52,East,81,4.0,5.0,82,0.00,,,0.00,Wunderground v.1.15,2013-12-08 05:13:00,
2013-12-08 00:17:00,21.3,16.7,30.52,ESE,113,5.0,7.0,82,0.00,,,0.00,Wunderground v.1.15,2013-12-08 05:17:00,
2013-12-08 00:23:00,21.3,16.4,30.51,ENE,68,6.0,8.0,81,0.00,,,0.00,Wunderground v.1.15,2013-12-08 05:23:00,
2013-12-08 00:29:00,21.4,16.5,30.51,ENE,72,6.0,8.0,81,0.00,,,0.00,Wunderground v.1.15,2013-12-08 05:29:00,
2013-12-08 00:35:00,21.3,16.7,30.50,ENE,73,5.0,6.0,82,0.00,,,0.00,Wunderground v.1.15,2013-12-08 05:35:00,
2013-12-08 00:41:00,21.3,16.7,30.50,East,87,4.0,6.0,82,0.00,,,0.00,Wunderground v.1.15,2013-12-08 05:41:00,
2013-12-08 00:47:00,21.3,16.7,30.49,ENE,76,6.0,8.0,82,0.00,,,0.00,Wunderground v.1.15,2013-12-08 05:47:00,
2013-12-08 00:53:00,21.2,16.6,30.49,ENE,71,7.0,9.0,82,0.00,,,0.00,Wunderground v.1.15,2013-12-08 05:53:00,
2013-12-08 00:59:00,21.2,16.6,30.48,East,88,7.0,9.0,82,0.00,,,0.00,Wunderground v.1.15,2013-12-08 05:59:00,
2013-12-08 01:05:00,21.2,16.6,30.48,East,82,6.0,9.0,82,0.00,,,0.00,Wunderground v.1.15,2013-12-08 06:05:00,
2013-12-08 01:11:00,21.3,16.7,30.46,ENE,74,7.0,8.0,82,0.00,,,0.00,Wunderground v.1.15,2013-12-08 06:11:00,
2013-12-08 01:17:00,21.3,16.7,30.47,ENE,69,7.0,8.0,82,0.00,,,0.00,Wunderground v.1.15,2013-12-08 06:17:00,
2013-12-08 01:23:00,21.3,16.7,30.47,ENE,58,7.0,7.0,82,0.00,,,0.00,Wunderground v.1.15,2013-12-08 06:23:00,
2013-12-08 01:29:00,21.3,16.7,30.47,ENE,75,7.0,8.0,82,0.00,,,0.00,Wunderground v.1.15,2013-12-08 06:29:00,
2013-12-08 01:35:00,21.4,16.8,30.47,ENE,78,5.0,6.0,82,0.00,,,0.00,Wunderground v.1.15,2013-12-08 06:35:00,
2013-12-08 01:41:00,21.4,17.0,30.46,East,79,5.0,5.0,83,0.00,,,0.00,Wunderground v.1.15,2013-12-08 06:41:00,
2013-12-08 01:47:00,21.4,17.0,30.46,ENE,74,5.0,8.0,83,0.00,,,0.00,Wunderground v.1.15,2013-12-08 06:47:00,
2013-12-08 01:53:00,21.5,17.1,30.45,East,80,6.0,7.0,83,0.00,,,0.00,Wunderground v.1.15,2013-12-08 06:53:00,
2013-12-08 01:59:00,21.5,17.1,30.44,NE,55,7.0,7.0,83,0.00,,,0.00,Wunderground v.1.15,2013-12-08 06:59:00,
2013-12-08 02:05:00,21.5,17.1,30.45,ENE,58,6.0,8.0,83,0.00,,,0.00,Wunderground v.1.15,2013-12-08 07:05:00,
2013-12-08 02:11:00,21.4,17.0,30.44,ENE,65,6.0,8.0,83,0.00,,,0.00,Wunderground v.1.15,2013-12-08 07:11:00,
2013-12-08 02:17:00,21.3,17.2,30.44,ENE,65,6.0,8.0,84,0.00,,,0.00,Wunderground v.1.15,2013-12-08 07:17:00,
2013-12-08 02:23:00,21.2,17.1,30.42,East,87,7.0,8.0,84,0.00,,,0.00,Wunderground v.1.15,2013-12-08 07:23:00,
2013-12-08 02:29:00,21.2,17.1,30.42,ENE,71,8.0,9.0,84,0.00,,,0.00,Wunderground v.1.15,2013-12-08 07:29:00,
2013-12-08 02:35:00,21.3,17.2,30.43,ENE,75,7.0,8.0,84,0.00,,,0.00,Wunderground v.1.15,2013-12-08 07:35:00,
2013-12-08 02:41:00,21.5,17.4,30.43,ENE,71,7.0,7.0,84,0.00,,,0.00,Wunderground v.1.15,2013-12-08 07:41:00,
2013-12-08 02:47:00,21.6,17.5,30.43,East,83,7.0,8.0,84,0.00,,,0.00,Wunderground v.1.15,2013-12-08 07:47:00,
2013-12-08 02:53:00,21.6,17.5,30.43,East,96,8.0,9.0,84,0.00,,,0.00,Wunderground v.1.15,2013-12-08 07:53:00,
2013-12-08 02:59:00,21.7,17.6,30.42,East,96,8.0,9.0,84,0.00,,,0.00,Wunderground v.1.15,2013-12-08 07:59:00,
2013-12-08 03:05:00,21.7,17.6,30.41,East,94,8.0,14.0,84,0.00,,,0.00,Wunderground v.1.15,2013-12-08 08:05:00,
2013-12-08 03:11:00,21.7,17.6,30.41,ENE,77,8.0,9.0,84,0.00,,,0.00,Wunderground v.1.15,2013-12-08 08:11:00,
2013-12-08 03:17:00,21.6,17.5,30.41,ENE,61,8.0,9.0,84,0.00,,,0.00,Wunderground v.1.15,2013-12-08 08:17:00,
2013-12-08 03:23:00,21.7,17.6,30.41,ENE,71,9.0,12.0,84,0.00,,,0.00,Wunderground v.1.15,2013-12-08 08:23:00,
2013-12-08 03:29:00,21.6,17.5,30.41,East,94,8.0,12.0,84,0.00,,,0.00,Wunderground v.1.15,2013-12-08 08:29:00,
2013-12-08 03:35:00,21.6,17.5,30.42,SE,125,8.0,14.0,84,0.00,,,0.00,Wunderground v.1.15,2013-12-08 08:35:00,
2013-12-08 03:41:00,21.7,17.6,30.41,East,81,9.0,9.0,84,0.00,,,0.00,Wunderground v.1.15,2013-12-08 08:41:00,
2013-12-08 03:47:00,21.6,17.5,30.41,East,96,8.0,9.0,84,0.00,,,0.00,Wunderground v.1.15,2013-12-08 08:47:00,
2013-12-08 03:53:00,21.6,17.5,30.41,East,91,7.0,7.0,84,0.00,,,0.00,Wunderground v.1.15,2013-12-08 08:53:00,
2013-12-08 03:59:00,21.6,17.5,30.41,East,86,7.0,8.0,84,0.00,,,0.00,Wunderground v.1.15,2013-12-08 08:59:00,
2013-12-08 04:05:00,21.6,17.5,30.38,ENE,78,7.0,10.0,84,0.00,,,0.00,Wunderground v.1.15,2013-12-08 09:05:00,
2013-12-08 04:11:00,21.6,17.8,30.38,East,84,8.0,10.0,85,0.00,,,0.00,Wunderground v.1.15,2013-12-08 09:11:00,
2013-12-08 04:17:00,21.7,17.9,30.38,East,90,8.0,10.0,85,0.00,,,0.00,Wunderground v.1.15,2013-12-08 09:17:00,
2013-12-08 04:23:00,21.7,17.9,30.39,East,83,7.0,8.0,85,0.00,,,0.00,Wunderground v.1.15,2013-12-08 09:23:00,
2013-12-08 04:29:00,21.8,18.0,30.39,East,80,7.0,8.0,85,0.00,,,0.00,Wunderground v.1.15,2013-12-08 09:29:00,
2013-12-08 04:35:00,21.8,18.0,30.37,East,84,7.0,8.0,85,0.00,,,0.00,Wunderground v.1.15,2013-12-08 09:35:00,
2013-12-08 04:41:00,21.8,18.0,30.36,East,82,8.0,9.0,85,0.00,,,0.00,Wunderground v.1.15,2013-12-08 09:41:00,
2013-12-08 04:47:00,21.9,18.1,30.37,East,94,8.0,9.0,85,0.00,,,0.00,Wunderground v.1.15,2013-12-08 09:47:00,
2013-12-08 04:53:00,22.0,18.2,30.36,East,85,7.0,10.0,85,0.00,,,0.00,Wunderground v.1.15,2013-12-08 09:53:00,
2013-12-08 04:59:00,22.0,18.2,30.36,ENE,71,8.0,10.0,85,0.00,,,0.00,Wunderground v.1.15,2013-12-08 09:59:00,
2013-12-08 05:05:00,22.1,18.3,30.35,East,80,7.0,9.0,85,0.00,,,0.00,Wunderground v.1.15,2013-12-08 10:05:00,
2013-12-08 05:11:00,22.1,18.3,30.35,ENE,69,7.0,7.0,85,0.00,,,0.00,Wunderground v.1.15,2013-12-08 10:11:00,
2013-12-08 05:17:00,22.1,18.6,30.35,ENE,78,6.0,8.0,86,0.00,,,0.00,Wunderground v.1.15,2013-12-08 10:17:00,
2013-12-08 05:23:00,22.2,18.7,30.35,East,80,6.0,7.0,86,0.00,,,0.00,Wunderground v.1.15,2013-12-08 10:23:00,
2013-12-08 05:29:00,22.2,18.7,30.34,ENE,71,6.0,9.0,86,0.00,,,0.00,Wunderground v.1.15,2013-12-08 10:29:00,
2013-12-08 05:35:00,22.3,18.7,30.34,ESE,102,7.0,8.0,86,0.00,,,0.00,Wunderground v.1.15,2013-12-08 10:35:00,
2013-12-08 05:41:00,22.3,18.7,30.34,ENE,65,7.0,9.0,86,0.00,,,0.00,Wunderground v.1.15,2013-12-08 10:41:00,
2013-12-08 05:47:00,22.4,18.8,30.35,ENE,76,6.0,9.0,86,0.00,,,0.00,Wunderground v.1.15,2013-12-08 10:47:00,
2013-12-08 05:53:00,22.4,18.8,30.34,ENE,76,6.0,9.0,86,0.00,,,0.00,Wunderground v.1.15,2013-12-08 10:53:00,
2013-12-08 05:59:00,22.5,18.9,30.33,ENE,74,8.0,10.0,86,0.00,,,0.00,Wunderground v.1.15,2013-12-08 10:59:00,
2013-12-08 06:05:00,22.4,18.8,30.32,ENE,67,8.0,8.0,86,0.00,,,0.00,Wunderground v.1.15,2013-12-08 11:05:00,
2013-12-08 06:11:00,22.4,18.8,30.31,ENE,59,8.0,8.0,86,0.00,,,0.00,Wunderground v.1.15,2013-12-08 11:11:00,
2013-12-08 06:17:00,22.5,18.9,30.31,NE,55,9.0,12.0,86,0.00,,,0.00,Wunderground v.1.15,2013-12-08 11:17:00,
2013-12-08 06:23:00,22.5,18.9,30.32,ENE,67,8.0,8.0,86,0.00,,,0.00,Wunderground v.1.15,2013-12-08 11:23:00,
2013-12-08 06:29:00,22.5,18.9,30.32,East,88,6.0,8.0,86,0.00,,,0.00,Wunderground v.1.15,2013-12-08 11:29:00,
2013-12-08 06:35:00,22.5,18.9,30.30,NE,52,6.0,7.0,86,0.00,,,0.00,Wunderground v.1.15,2013-12-08 11:35:00,
2013-12-08 06:41:00,22.4,18.8,30.31,ENE,60,6.0,10.0,86,0.00,,,0.00,Wunderground v.1.15,2013-12-08 11:41:00,
2013-12-08 06:47:00,22.3,18.7,30.31,ENE,62,7.0,10.0,86,0.00,,,0.00,Wunderground v.1.15,2013-12-08 11:47:00,
2013-12-08 06:53:00,22.2,18.7,30.30,ENE,63,7.0,10.0,86,0.00,,,0.00,Wunderground v.1.15,2013-12-08 11:53:00,
2013-12-08 06:59:00,22.2,18.7,30.31,ENE,74,8.0,10.0,86,0.00,,,0.00,Wunderground v.1.15,2013-12-08 11:59:00,
2013-12-08 07:05:00,22.2,18.7,30.31,East,85,8.0,9.0,86,0.00,,,0.00,Wunderground v.1.15,2013-12-08 12:05:00,
2013-12-08 07:11:00,22.2,18.7,30.29,East,80,8.0,9.0,86,0.00,,,0.00,Wunderground v.1.15,2013-12-08 12:11:00,
2013-12-08 07:17:00,22.3,18.7,30.28,East,87,8.0,14.0,86,0.00,,,0.00,Wunderground v.1.15,2013-12-08 12:17:00,
2013-12-08 07:23:00,22.3,19.0,30.27,East,98,9.0,10.0,87,0.00,,,0.00,Wunderground v.1.15,2013-12-08 12:23:00,
2013-12-08 07:29:00,22.4,19.1,30.27,East,92,9.0,11.0,87,0.00,,,0.00,Wunderground v.1.15,2013-12-08 12:29:00,
2013-12-08 07:35:00,22.5,18.9,30.29,ESE,111,10.0,11.0,86,0.00,,,0.00,Wunderground v.1.15,2013-12-08 12:35:00,
2013-12-08 07:41:00,22.6,19.0,30.28,East,83,8.0,8.0,86,0.00,,,0.00,Wunderground v.1.15,2013-12-08 12:41:00,
2013-12-08 07:47:00,22.6,19.0,30.28,East,84,8.0,11.0,86,0.00,,,0.00,Wunderground v.1.15,2013-12-08 12:47:00,
2013-12-08 07:53:00,22.6,19.0,30.28,East,100,9.0,10.0,86,0.00,,,0.00,Wunderground v.1.15,2013-12-08 12:53:00,
2013-12-08 07:59:00,22.7,19.1,30.28,East,94,8.0,11.0,86,0.00,,,0.00,Wunderground v.1.15,2013-12-08 12:59:00,
2013-12-08 08:05:00,22.8,19.5,30.29,ENE,72,7.0,9.0,87,0.00,,,0.00,Wunderground v.1.15,2013-12-08 13:05:00,
2013-12-08 08:11:00,22.8,19.5,30.29,East,82,7.0,11.0,87,0.00,,,0.00,Wunderground v.1.15,2013-12-08 13:11:00,
2013-12-08 08:17:00,22.9,19.6,30.29,East,94,7.0,11.0,87,0.00,,,0.00,Wunderground v.1.15,2013-12-08 13:17:00,
2013-12-08 08:23:00,22.9,19.6,30.29,East,99,7.0,7.0,87,0.00,,,0.00,Wunderground v.1.15,2013-12-08 13:23:00,
2013-12-08 08:29:00,23.0,20.0,30.28,East,98,7.0,7.0,88,0.00,,,0.00,Wunderground v.1.15,2013-12-08 13:29:00,
2013-12-08 08:35:00,23.0,20.0,30.28,East,90,7.0,9.0,88,0.00,,,0.00,Wunderground v.1.15,2013-12-08 13:35:00,
2013-12-08 08:41:00,23.1,20.1,30.27,East,80,7.0,8.0,88,0.00,,,0.00,Wunderground v.1.15,2013-12-08 13:41:00,
2013-12-08 08:47:00,23.2,20.4,30.28,ESE,110,7.0,8.0,89,0.00,,,0.00,Wunderground v.1.15,2013-12-08 13:47:00,
2013-12-08 08:53:00,23.3,20.5,30.27,East,87,8.0,10.0,89,0.00,,,0.00,Wunderground v.1.15,2013-12-08 13:53:00,
2013-12-08 08:59:00,23.3,20.8,30.27,East,92,9.0,11.0,90,0.00,,,0.00,Wunderground v.1.15,2013-12-08 13:59:00,
2013-12-08 09:05:00,23.4,20.9,30.28,East,83,9.0,10.0,90,0.00,,,0.00,Wunderground v.1.15,2013-12-08 14:05:00,
2013-12-08 09:11:00,23.4,20.9,30.27,ENE,72,8.0,10.0,90,0.00,,,0.00,Wunderground v.1.15,2013-12-08 14:11:00,
2013-12-08 09:17:00,23.4,20.9,30.27,East,98,8.0,10.0,90,0.00,,,0.00,Wunderground v.1.15,2013-12-08 14:17:00,
2013-12-08 09:23:00,23.5,21.0,30.27,East,89,9.0,9.0,90,0.00,,,0.00,Wunderground v.1.15,2013-12-08 14:23:00,
2013-12-08 09:29:00,23.6,21.4,30.27,East,101,9.0,12.0,91,0.00,,,0.00,Wunderground v.1.15,2013-12-08 14:29:00,
2013-12-08 09:35:00,23.7,21.5,30.27,East,90,9.0,11.0,91,0.00,,,0.00,Wunderground v.1.15,2013-12-08 14:35:00,
2013-12-08 09:41:00,23.8,21.6,30.27,East,90,9.0,10.0,91,0.00,,,0.00,Wunderground v.1.15,2013-12-08 14:41:00,
2013-12-08 09:47:00,23.9,21.7,30.26,East,94,8.0,11.0,91,0.00,,,0.00,Wunderground v.1.15,2013-12-08 14:47:00,
2013-12-08 09:53:00,23.9,21.7,30.26,ESE,112,9.0,13.0,91,0.00,,,0.00,Wunderground v.1.15,2013-12-08 14:53:00,
2013-12-08 09:59:00,24.0,21.8,30.25,East,96,10.0,13.0,91,0.00,,,0.00,Wunderground v.1.15,2013-12-08 14:59:00,
2013-12-08 10:05:00,24.2,22.0,30.25,ENE,74,9.0,11.0,91,0.00,,,0.00,Wunderground v.1.15,2013-12-08 15:05:00,
2013-12-08 10:11:00,24.3,22.1,30.26,East,79,9.0,10.0,91,0.00,,,0.00,Wunderground v.1.15,2013-12-08 15:11:00,
2013-12-08 10:17:00,24.4,22.2,30.26,ESE,109,8.0,10.0,91,0.00,,,0.00,Wunderground v.1.15,2013-12-08 15:17:00,
2013-12-08 10:23:00,24.6,22.3,30.26,ENE,69,8.0,12.0,91,0.00,,,0.00,Wunderground v.1.15,2013-12-08 15:23:00,
2013-12-08 10:29:00,24.7,22.4,30.26,ENE,77,8.0,12.0,91,0.00,,,0.00,Wunderground v.1.15,2013-12-08 15:29:00,
2013-12-08 10:35:00,24.9,22.6,30.26,East,90,7.0,8.0,91,0.00,,,0.00,Wunderground v.1.15,2013-12-08 15:35:00,
2013-12-08 10:41:00,25.0,22.7,30.26,East,80,7.0,7.0,91,0.00,,,0.00,Wunderground v.1.15,2013-12-08 15:41:00,
2013-12-08 10:47:00,25.2,22.7,30.26,ENE,65,7.0,9.0,90,0.00,,,0.00,Wunderground v.1.15,2013-12-08 15:47:00,
2013-12-08 10:53:00,25.3,22.8,30.25,East,87,8.0,8.0,90,0.00,,,0.00,Wunderground v.1.15,2013-12-08 15:53:00,
2013-12-08 10:59:00,25.5,23.0,30.25,East,96,7.0,8.0,90,0.00,,,0.00,Wunderground v.1.15,2013-12-08 15:59:00,
2013-12-08 11:05:00,25.7,23.2,30.25,ENE,71,6.0,7.0,90,0.00,,,0.00,Wunderground v.1.15,2013-12-08 16:05:00,
2013-12-08 11:11:00,25.8,23.3,30.25,East,80,6.0,6.0,90,0.00,,,0.00,Wunderground v.1.15,2013-12-08 16:11:00,
2013-12-08 11:17:00,25.9,23.4,30.25,East,94,6.0,10.0,90,0.00,,,0.00,Wunderground v.1.15,2013-12-08 16:17:00,
2013-12-08 11:23:00,26.1,23.6,30.24,East,86,6.0,6.0,90,0.00,,,0.00,Wunderground v.1.15,2013-12-08 16:23:00,
2013-12-08 11:29:00,26.2,23.7,30.24,East,91,6.0,7.0,90,0.00,,,0.00,Wunderground v.1.15,2013-12-08 16:29:00,
2013-12-08 11:35:00,26.3,23.8,30.24,East,81,6.0,7.0,90,0.00,,,0.00,Wunderground v.1.15,2013-12-08 16:35:00,
2013-12-08 11:41:00,26.4,23.9,30.23,ESE,117,6.0,6.0,90,0.00,,,0.00,Wunderground v.1.15,2013-12-08 16:41:00,
2013-12-08 11:47:00,26.5,23.7,30.23,East,80,6.0,7.0,89,0.00,,,0.00,Wunderground v.1.15,2013-12-08 16:47:00,
2013-12-08 11:53:00,26.6,23.8,30.22,East,90,7.0,7.0,89,0.00,,,0.00,Wunderground v.1.15,2013-12-08 16:53:00,
2013-12-08 11:59:00,26.6,23.8,30.22,East,90,7.0,10.0,89,0.00,,,0.00,Wunderground v.1.15,2013-12-08 16:59:00,
2013-12-08 12:05:00,26.8,24.0,30.22,East,90,5.0,6.0,89,0.00,,,0.00,Wunderground v.1.15,2013-12-08 17:05:00,
2013-12-08 12:11:00,26.9,24.1,30.21,East,91,4.0,5.0,89,0.00,,,0.00,Wunderground v.1.15,2013-12-08 17:11:00,
2013-12-08 12:17:00,26.9,24.4,30.21,East,80,6.0,7.0,90,0.00,,,0.00,Wunderground v.1.15,2013-12-08 17:17:00,
2013-12-08 12:23:00,27.0,24.5,30.20,ENE,74,6.0,9.0,90,0.00,,,0.00,Wunderground v.1.15,2013-12-08 17:23:00,
2013-12-08 12:29:00,27.0,24.5,30.20,ENE,64,6.0,10.0,90,0.00,,,0.00,Wunderground v.1.15,2013-12-08 17:29:00,
2013-12-08 12:35:00,27.0,24.7,30.19,East,82,5.0,6.0,91,0.00,,,0.00,Wunderground v.1.15,2013-12-08 17:35:00,
2013-12-08 12:41:00,27.2,24.9,30.18,ESE,103,5.0,5.0,91,0.00,,,0.00,Wunderground v.1.15,2013-12-08 17:41:00,
2013-12-08 12:47:00,27.3,25.0,30.18,ENE,68,5.0,7.0,91,0.00,,,0.00,Wunderground v.1.15,2013-12-08 17:47:00,
2013-12-08 12:53:00,27.5,25.2,30.17,ESE,106,5.0,7.0,91,0.00,,,0.00,Wunderground v.1.15,2013-12-08 17:53:00,
2013-12-08 12:59:00,27.6,25.3,30.17,East,88,5.0,8.0,91,0.00,,,0.00,Wunderground v.1.15,2013-12-08 17:59:00,
2013-12-08 13:05:00,27.8,25.5,30.17,ESE,104,4.0,5.0,91,0.00,,,0.00,Wunderground v.1.15,2013-12-08 18:05:00,
2013-12-08 13:11:00,27.9,25.3,30.16,East,86,4.0,6.0,90,0.00,,,0.00,Wunderground v.1.15,2013-12-08 18:11:00,
2013-12-08 13:17:00,28.0,25.4,30.16,ESE,111,5.0,6.0,90,0.00,,,0.00,Wunderground v.1.15,2013-12-08 18:17:00,
2013-12-08 13:23:00,28.2,25.6,30.16,East,100,4.0,6.0,90,0.00,,,0.00,Wunderground v.1.15,2013-12-08 18:23:00,
2013-12-08 13:29:00,28.3,25.7,30.15,ESE,113,5.0,8.0,90,0.00,,,0.00,Wunderground v.1.15,2013-12-08 18:29:00,
2013-12-08 13:35:00,28.4,25.8,30.15,ESE,116,5.0,5.0,90,0.00,,,0.00,Wunderground v.1.15,2013-12-08 18:35:00,
2013-12-08 13:41:00,28.4,25.8,30.15,ESE,108,4.0,5.0,90,0.00,,,0.00,Wunderground v.1.15,2013-12-08 18:41:00,
2013-12-08 13:47:00,28.4,26.1,30.14,ESE,102,4.0,5.0,91,0.00,,,0.00,Wunderground v.1.15,2013-12-08 18:47:00,
2013-12-08 13:53:00,28.5,26.2,30.13,SE,128,4.0,7.0,91,0.00,,,0.00,Wunderground v.1.15,2013-12-08 18:53:00,
2013-12-08 13:59:00,28.5,26.5,30.13,East,101,6.0,7.0,92,0.00,,,0.00,Wunderground v.1.15,2013-12-08 18:59:00,
2013-12-08 14:05:00,28.5,26.5,30.12,ESE,119,6.0,6.0,92,0.00,,,0.00,Wunderground v.1.15,2013-12-08 19:05:00,
2013-12-08 14:11:00,28.5,26.7,30.12,ESE,121,5.0,5.0,93,0.00,,,0.00,Wunderground v.1.15,2013-12-08 19:11:00,
2013-12-08 14:17:00,28.5,26.7,30.11,ESE,119,4.0,8.0,93,0.00,,,0.00,Wunderground v.1.15,2013-12-08 19:17:00,
2013-12-08 14:23:00,28.6,26.8,30.11,ESE,123,5.0,6.0,93,0.00,,,0.00,Wunderground v.1.15,2013-12-08 19:23:00,
2013-12-08 14:29:00,28.7,26.9,30.11,ESE,104,5.0,6.0,93,0.00,,,0.00,Wunderground v.1.15,2013-12-08 19:29:00,
2013-12-08 14:35:00,28.8,27.0,30.11,ESE,109,4.0,7.0,93,0.00,,,0.00,Wunderground v.1.15,2013-12-08 19:35:00,
2013-12-08 14:41:00,29.0,27.2,30.11,SE,126,4.0,4.0,93,0.00,,,0.00,Wunderground v.1.15,2013-12-08 19:41:00,
2013-12-08 14:47:00,29.1,27.3,30.11,ESE,119,5.0,9.0,93,0.00,,,0.00,Wunderground v.1.15,2013-12-08 19:47:00,
2013-12-08 14:53:00,29.2,27.4,30.11,ESE,108,6.0,7.0,93,0.00,,,0.00,Wunderground v.1.15,2013-12-08 19:53:00,
2013-12-08 14:59:00,29.3,27.5,30.10,ESE,117,6.0,7.0,93,0.00,,,0.00,Wunderground v.1.15,2013-12-08 19:59:00,
2013-12-08 15:05:00,29.4,27.6,30.10,ESE,115,6.0,8.0,93,0.00,,,0.00,Wunderground v.1.15,2013-12-08 20:05:00,
2013-12-08 15:11:00,29.4,27.6,30.10,ESE,103,7.0,8.0,93,0.00,,,0.00,Wunderground v.1.15,2013-12-08 20:11:00,
2013-12-08 15:17:00,29.4,27.6,30.09,East,91,7.0,9.0,93,0.00,,,0.00,Wunderground v.1.15,2013-12-08 20:17:00,
2013-12-08 15:23:00,29.4,27.6,30.09,ESE,111,7.0,10.0,93,0.00,,,0.00,Wunderground v.1.15,2013-12-08 20:23:00,
2013-12-08 15:29:00,29.4,27.6,30.09,East,94,7.0,10.0,93,0.00,,,0.00,Wunderground v.1.15,2013-12-08 20:29:00,
2013-12-08 15:35:00,29.4,27.6,30.09,ESE,120,7.0,9.0,93,0.00,,,0.00,Wunderground v.1.15,2013-12-08 20:35:00,
2013-12-08 15:41:00,29.5,27.7,30.09,ESE,111,6.0,6.0,93,0.00,,,0.00,Wunderground v.1.15,2013-12-08 20:41:00,
2013-12-08 15:47:00,29.5,27.7,30.08,ESE,108,5.0,6.0,93,0.00,,,0.00,Wunderground v.1.15,2013-12-08 20:47:00,
2013-12-08 15:53:00,29.5,27.7,30.09,ESE,107,5.0,5.0,93,0.00,,,0.00,Wunderground v.1.15,2013-12-08 20:53:00,
2013-12-08 15:59:00,29.5,27.7,30.08,East,92,4.0,6.0,93,0.00,,,0.00,Wunderground v.1.15,2013-12-08 20:59:00,
2013-12-08 16:05:00,29.5,28.0,30.09,ESE,111,4.0,5.0,94,0.00,,,0.00,Wunderground v.1.15,2013-12-08 21:05:00,
2013-12-08 16:11:00,29.5,28.0,30.08,East,99,4.0,4.0,94,0.00,,,0.00,Wunderground v.1.15,2013-12-08 21:11:00,
2013-12-08 16:17:00,29.5,28.0,30.08,East,97,3.0,5.0,94,0.00,,,0.00,Wunderground v.1.15,2013-12-08 21:17:00,
2013-12-08 16:23:00,29.5,28.0,30.07,East,93,3.0,6.0,94,0.00,,,0.00,Wunderground v.1.15,2013-12-08 21:23:00,
2013-12-08 16:29:00,29.5,28.0,30.07,ESE,105,3.0,6.0,94,0.00,,,0.00,Wunderground v.1.15,2013-12-08 21:29:00,
2013-12-08 16:35:00,29.6,28.1,30.07,East,95,3.0,5.0,94,0.00,,,0.00,Wunderground v.1.15,2013-12-08 21:35:00,
2013-12-08 16:41:00,29.6,28.1,30.07,ESE,116,4.0,4.0,94,0.00,,,0.00,Wunderground v.1.15,2013-12-08 21:41:00,
2013-12-08 16:47:00,29.6,28.1,30.07,ESE,110,3.0,4.0,94,0.00,,,0.00,Wunderground v.1.15,2013-12-08 21:47:00,
2013-12-08 16:53:00,29.7,28.4,30.07,ESE,112,1.0,2.0,95,0.00,,,0.00,Wunderground v.1.15,2013-12-08 21:53:00,
2013-12-08 16:59:00,29.8,28.5,30.07,ESE,113,0.0,2.0,95,0.00,,,0.00,Wunderground v.1.15,2013-12-08 21:59:00,
2013-12-08 17:05:00,29.9,28.6,30.07,SE,137,1.0,3.0,95,0.00,,,0.00,Wunderground v.1.15,2013-12-08 22:05:00,
2013-12-08 17:11:00,29.9,28.6,30.07,SE,130,2.0,2.0,95,0.00,,,0.00,Wunderground v.1.15,2013-12-08 22:11:00,
2013-12-08 17:17:00,30.0,28.7,30.06,ESE,123,3.0,4.0,95,0.00,,,0.00,Wunderground v.1.15,2013-12-08 22:17:00,
2013-12-08 17:23:00,30.0,28.7,30.06,SE,139,2.0,2.0,95,0.00,,,0.00,Wunderground v.1.15,2013-12-08 22:23:00,
2013-12-08 17:29:00,30.0,28.7,30.06,ESE,111,2.0,5.0,95,0.00,,,0.00,Wunderground v.1.15,2013-12-08 22:29:00,
2013-12-08 17:35:00,30.0,28.7,30.05,ESE,117,4.0,5.0,95,0.00,,,0.00,Wunderground v.1.15,2013-12-08 22:35:00,
2013-12-08 17:41:00,30.0,28.7,30.05,ESE,118,3.0,3.0,95,0.00,,,0.00,Wunderground v.1.15,2013-12-08 22:41:00,
2013-12-08 17:47:00,30.0,28.7,30.05,ESE,109,3.0,4.0,95,0.00,,,0.00,Wunderground v.1.15,2013-12-08 22:47:00,
2013-12-08 17:53:00,30.0,28.7,30.05,ESE,115,3.0,4.0,95,0.00,,,0.00,Wunderground v.1.15,2013-12-08 22:53:00,
2013-12-08 17:59:00,29.9,28.6,30.04,ESE,111,3.0,4.0,95,0.00,,,0.00,Wunderground v.1.15,2013-12-08 22:59:00,
2013-12-08 18:05:00,29.9,28.6,30.04,ESE,105,3.0,7.0,95,0.00,,,0.00,Wunderground v.1.15,2013-12-08 23:05:00,
2013-12-08 18:11:00,30.0,29.0,30.04,SE,130,4.0,4.0,96,0.00,,,0.00,Wunderground v.1.15,2013-12-08 23:11:00,
2013-12-08 18:17:00,30.0,29.0,30.04,ESE,106,4.0,4.0,96,0.00,,,0.00,Wunderground v.1.15,2013-12-08 23:17:00,
2013-12-08 18:23:00,30.1,29.1,30.04,ESE,114,4.0,7.0,96,0.00,,,0.00,Wunderground v.1.15,2013-12-08 23:23:00,
2013-12-08 18:29:00,30.2,29.2,30.04,ESE,122,4.0,7.0,96,0.00,,,0.00,Wunderground v.1.15,2013-12-08 23:29:00,
2013-12-08 18:35:00,30.2,29.2,30.04,ESE,114,4.0,4.0,96,0.00,,,0.00,Wunderground v.1.15,2013-12-08 23:35:00,
2013-12-08 18:41:00,30.2,29.2,30.04,ESE,111,3.0,7.0,96,0.00,,,0.00,Wunderground v.1.15,2013-12-08 23:41:00,
2013-12-08 18:47:00,30.3,29.3,30.04,SE,124,3.0,7.0,96,0.00,,,0.00,Wunderground v.1.15,2013-12-08 23:47:00,
2013-12-08 18:53:00,30.3,29.3,30.05,ESE,110,3.0,4.0,96,0.00,,,0.00,Wunderground v.1.15,2013-12-08 23:53:00,
2013-12-08 18:59:00,30.3,29.3,30.05,ESE,109,2.0,4.0,96,0.00,,,0.00,Wunderground v.1.15,2013-12-08 23:59:00,
2013-12-08 19:05:00,30.4,29.4,30.05,ESE,110,0.0,1.0,96,0.00,,,0.00,Wunderground v.1.15,2013-12-09 00:05:00,
2013-12-08 19:11:00,30.4,29.4,30.05,ESE,111,0.0,0.0,96,0.00,,,0.00,Wunderground v.1.15,2013-12-09 00:11:00,
2013-12-08 19:17:00,30.5,29.5,30.06,SE,134,1.0,4.0,96,0.00,,,0.00,Wunderground v.1.15,2013-12-09 00:17:00,
2013-12-08 19:23:00,30.5,29.5,30.06,SSE,153,2.0,2.0,96,0.00,,,0.00,Wunderground v.1.15,2013-12-09 00:23:00,
2013-12-08 19:29:00,30.5,29.5,30.06,SE,146,2.0,3.0,96,0.00,,,0.00,Wunderground v.1.15,2013-12-09 00:29:00,
2013-12-08 19:35:00,30.5,29.5,30.06,SSE,153,3.0,4.0,96,0.00,,,0.00,Wunderground v.1.15,2013-12-09 00:35:00,
2013-12-08 19:41:00,30.6,29.6,30.06,SSE,150,1.0,1.0,96,0.00,,,0.00,Wunderground v.1.15,2013-12-09 00:41:00,
2013-12-08 19:47:00,30.6,29.6,30.07,SE,143,1.0,1.0,96,0.00,,,0.00,Wunderground v.1.15,2013-12-09 00:47:00,
2013-12-08 19:53:00,30.6,29.6,30.06,SE,143,0.0,1.0,96,0.00,,,0.00,Wunderground v.1.15,2013-12-09 00:53:00,
2013-12-08 19:59:00,30.6,29.6,30.06,SE,143,0.0,1.0,96,0.00,,,0.00,Wunderground v.1.15,2013-12-09 00:59:00,
2013-12-08 20:05:00,30.7,29.7,30.07,SE,143,0.0,0.0,96,0.00,,,0.00,Wunderground v.1.15,2013-12-09 01:05:00,
2013-12-08 20:11:00,30.8,29.8,30.06,SE,143,0.0,0.0,96,0.00,,,0.00,Wunderground v.1.15,2013-12-09 01:11:00,
2013-12-08 20:17:00,30.8,29.8,30.07,SE,143,0.0,0.0,96,0.00,,,0.00,Wunderground v.1.15,2013-12-09 01:17:00,
2013-12-08 20:23:00,30.9,30.1,30.06,SE,143,0.0,1.0,97,0.00,,,0.00,Wunderground v.1.15,2013-12-09 01:23:00,
2013-12-08 20:29:00,30.9,30.1,30.06,SE,143,0.0,1.0,97,0.00,,,0.00,Wunderground v.1.15,2013-12-09 01:29:00,
2013-12-08 20:35:00,31.0,30.2,30.06,SE,143,0.0,0.0,97,0.00,,,0.00,Wunderground v.1.15,2013-12-09 01:35:00,
2013-12-08 20:41:00,31.0,30.2,30.06,SE,143,0.0,0.0,97,0.00,,,0.00,Wunderground v.1.15,2013-12-09 01:41:00,
2013-12-08 20:47:00,31.1,30.3,30.06,SE,143,0.0,0.0,97,0.00,,,0.00,Wunderground v.1.15,2013-12-09 01:47:00,
2013-12-08 20:53:00,31.1,30.3,30.06,SE,143,0.0,0.0,97,0.00,,,0.00,Wunderground v.1.15,2013-12-09 01:53:00,
2013-12-08 20:59:00,31.2,30.4,30.06,SE,143,0.0,0.0,97,0.00,,,0.00,Wunderground v.1.15,2013-12-09 01:59:00,
2013-12-08 21:05:00,31.2,30.4,30.06,SE,143,0.0,0.0,97,0.00,,,0.00,Wunderground v.1.15,2013-12-09 02:05:00,
2013-12-08 21:11:00,31.3,30.5,30.06,SE,143,0.0,2.0,97,0.00,,,0.00,Wunderground v.1.15,2013-12-09 02:11:00,
2013-12-08 21:17:00,31.3,30.5,30.05,SE,143,0.0,2.0,97,0.00,,,0.00,Wunderground v.1.15,2013-12-09 02:17:00,
2013-12-08 21:23:00,31.3,30.5,30.04,SE,144,0.0,1.0,97,0.00,,,0.00,Wunderground v.1.15,2013-12-09 02:23:00,
2013-12-08 21:29:00,31.4,30.6,30.05,SE,144,1.0,2.0,97,0.00,,,0.00,Wunderground v.1.15,2013-12-09 02:29:00,
2013-12-08 21:35:00,31.5,30.7,30.05,SE,144,0.0,0.0,97,0.00,,,0.00,Wunderground v.1.15,2013-12-09 02:35:00,
2013-12-08 21:41:00,31.6,30.8,30.05,SSE,150,1.0,1.0,97,0.00,,,0.00,Wunderground v.1.15,2013-12-09 02:41:00,
2013-12-08 21:47:00,31.6,30.8,30.05,SSE,153,1.0,1.0,97,0.00,,,0.00,Wunderground v.1.15,2013-12-09 02:47:00,
2013-12-08 21:53:00,31.7,30.9,30.05,SSE,155,1.0,1.0,97,0.00,,,0.00,Wunderground v.1.15,2013-12-09 02:53:00,
2013-12-08 21:59:00,31.7,30.9,30.05,SSE,159,1.0,3.0,97,0.00,,,0.00,Wunderground v.1.15,2013-12-09 02:59:00,
2013-12-08 22:05:00,31.8,31.0,30.05,SSE,160,2.0,2.0,97,0.00,,,0.00,Wunderground v.1.15,2013-12-09 03:05:00,
2013-12-08 22:11:00,31.9,31.1,30.05,SSE,161,1.0,1.0,97,0.00,,,0.00,Wunderground v.1.15,2013-12-09 03:11:00,
2013-12-08 22:17:00,31.8,31.0,30.05,SSE,162,0.0,1.0,97,0.00,,,0.00,Wunderground v.1.15,2013-12-09 03:17:00,
2013-12-08 22:23:00,31.9,31.1,30.05,South,170,1.0,5.0,97,0.00,,,0.00,Wunderground v.1.15,2013-12-09 03:23:00,
2013-12-08 22:29:00,31.9,31.1,30.05,SW,227,2.0,5.0,97,0.00,,,0.00,Wunderground v.1.15,2013-12-09 03:29:00,
2013-12-08 22:35:00,31.9,31.1,30.05,SW,234,3.0,3.0,97,0.00,,,0.00,Wunderground v.1.15,2013-12-09 03:35:00,
2013-12-08 22:41:00,32.0,31.2,30.05,WSW,246,2.0,2.0,97,0.00,,,0.00,Wunderground v.1.15,2013-12-09 03:41:00,
2013-12-08 22:47:00,32.0,31.2,30.05,WSW,242,3.0,6.0,97,0.00,,,0.00,Wunderground v.1.15,2013-12-09 03:47:00,
2013-12-08 22:53:00,32.0,31.2,30.05,SW,222,2.0,4.0,97,0.00,,,0.00,Wunderground v.1.15,2013-12-09 03:53:00,
2013-12-08 22:59:00,32.0,31.2,30.05,WSW,254,3.0,4.0,97,0.00,,,0.00,Wunderground v.1.15,2013-12-09 03:59:00,
2013-12-08 23:05:00,32.0,31.2,30.05,SW,234,2.0,6.0,97,0.00,,,0.00,Wunderground v.1.15,2013-12-09 04:05:00,
2013-12-08 23:11:00,32.0,31.2,30.06,West,280,2.0,2.0,97,0.00,,,0.00,Wunderground v.1.15,2013-12-09 04:11:00,
2013-12-08 23:17:00,32.0,31.2,30.05,WSW,246,4.0,6.0,97,0.00,,,0.00,Wunderground v.1.15,2013-12-09 04:17:00,
2013-12-08 23:23:00,32.0,31.2,30.05,WSW,237,4.0,4.0,97,0.00,,,0.00,Wunderground v.1.15,2013-12-09 04:23:00,
2013-12-08 23:29:00,32.0,31.2,30.06,WSW,256,4.0,5.0,97,0.00,,,0.00,Wunderground v.1.15,2013-12-09 04:29:00,
2013-12-08 23:35:00,32.0,31.2,30.06,WSW,254,2.0,4.0,97,0.00,,,0.00,Wunderground v.1.15,2013-12-09 04:35:00,
2013-12-08 23:41:00,31.9,31.1,30.06,WSW,246,1.0,3.0,97,0.00,,,0.00,Wunderground v.1.15,2013-12-09 04:41:00,
2013-12-08 23:47:00,31.9,31.1,30.06,WSW,246,2.0,3.0,97,0.00,,,0.00,Wunderground v.1.15,2013-12-09 04:47:00,
2013-12-08 23:53:00,31.9,31.1,30.06,WSW,244,2.0,6.0,97,0.00,,,0.00,Wunderground v.1.15,2013-12-09 04:53:00,
2013-12-08 23:59:00,31.8,31.0,30.06,WSW,248,2.0,6.0,97,0.00,,,0.00,Wunderground v.1.15,2013-12-09 04:59:00,